RH
17 18 18 19 19 18 18 19 19 20 22 24 26 27 28 28 28 29 29 31 33 34 35 36 38 40 42 44 45 45 45 45 45 45 45 45 44 42 41 39 37 34
18 19 20 20 20 21 21 21 22 23 24 26 28 29 30 30 31 31 31 33 36 38 40 41 43 44 46 48 49 49 48 48 48 48 48 47 46 45 43 41 38 35
18 19 20 21 22 22 22 23 24 25 26 28 29 31 32 32 33 33 34 36 39 42 44 45 48 49 51 52 52 52 51 51 51 51 51 50 48 47 44 41 39 36
18 19 20 21 22 22 23 24 25 27 28 29 31 32 33 34 35 35 36 39 42 45 47 49 52 54 56 56 56 55 54 54 54 53 53 52 51 48 45 41 38 36
20 21 20 21 22 23 24 26 28 30 31 32 33 33 34 35 36 37 38 41 44 48 51 53 56 58 60 60 60 59 59 58 57 56 55 55 52 49 45 41 38 35
27 25 23 22 22 23 25 26 29 32 34 36 36 36 36 36 37 39 40 44 47 51 54 56 59 61 63 64 64 64 63 62 60 59 58 57 54 50 45 41 38 35
32 31 28 25 24 24 25 26 30 34 37 39 39 39 39 38 39 40 43 46 51 55 57 59 61 63 64 66 67 67 66 64 63 61 60 59 55 50 44 40 37 34
33 35 33 31 28 27 26 27 31 36 39 42 43 43 43 42 42 43 45 49 54 58 59 60 62 64 66 68 69 70 68 66 65 63 62 59 55 50 43 37 34 31
33 35 36 36 35 33 31 30 32 37 41 44 46 47 46 46 46 46 48 53 57 60 62 63 64 65 67 70 73 73 70 68 67 65 64 60 54 48 42 35 31 27
39 39 39 39 39 39 37 34 35 39 42 46 48 50 51 50 50 50 52 55 59 62 64 65 66 67 68 72 76 76 74 71 69 67 65 61 54 48 41 34 29 24
52 51 48 45 42 41 40 38 39 42 45 48 51 54 55 54 53 54 55 58 60 63 66 67 68 68 70 75 80 80 77 73 71 69 66 59 53 47 40 33 27 22
64 65 62 53 45 41 40 40 42 46 48 50 54 58 59 58 58 59 60 62 65 66 68 69 70 71 73 79 83 82 79 76 74 70 65 59 53 47 39 32 25 20
60 70 72 62 48 41 41 42 46 49 52 55 59 63 63 63 64 65 65 67 70 71 72 73 73 74 77 82 85 85 82 79 76 72 66 59 54 47 39 31 25 20
47 64 77 70 51 40 42 45 49 54 57 61 65 68 69 69 70 71 71 73 75 76 76 77 77 78 82 86 88 88 85 82 78 73 67 60 53 45 37 30 24 20
40 58 78 74 51 41 44 49 54 60 64 67 71 73 75 75 76 76 77 79 80 80 81 81 81 83 87 91 91 90 88 85 79 73 66 58 50 42 34 27 23 20
37 51 72 70 49 42 48 54 60 67 71 74 77 78 79 80 82 82 82 84 85 85 85 84 86 89 92 94 94 93 91 86 80 72 62 54 47 39 31 25 21 20
35 44 65 67 50 46 54 61 69 75 79 81 81 82 84 86 87 88 89 91 91 89 88 88 91 94 96 98 98 95 91 86 79 70 61 53 46 38 30 23 20 20
38 42 61 67 54 52 63 71 78 83 85 86 85 86 90 92 94 95 96 97 95 92 92 93 95 97 99 100 100 96 90 83 76 69 61 54 47 38 29 23 19 20
43 45 62 70 62 63 76 83 88 91 90 89 90 93 96 98 99 100 100 99 97 96 96 97 98 100 101 101 100 95 88 80 72 66 60 53 45 34 26 21 20 21
47 50 66 76 73 78 90 95 96 96 93 94 97 99 101 101 101 100 100 100 100 99 99 99 100 101 102 101 98 93 85 77 69 63 58 51 41 30 24 21 21 23
50 57 76 89 88 93 100 101 100 99 97 99 100 101 101 101 100 100 101 102 101 100 100 100 100 101 102 100 96 90 82 74 68 62 55 46 36 28 24 22 23 26
57 67 86 99 98 100 103 102 101 100 100 101 101 100 101 100 100 101 101 101 101 99 100 100 101 102 101 98 94 88 80 73 66 59 51 41 32 27 25 25 27 30
66 78 94 101 100 101 102 101 101 101 101 101 100 100 100 100 100 101 100 100 100 100 101 102 101 102 100 96 91 84 77 70 63 55 47 38 30 27 27 29 32 36
80 89 98 101 101 102 101 101 101 100 100 100 100 100 100 100 101 100 99 101 102 102 102 102 101 101 98 93 88 81 73 67 59 51 44 36 30 28 30 34 37 41
94 98 101 101 101 102 101 100 100 100 100 100 100 100 100 100 101 101 101 102 102 102 102 101 101 100 96 90 85 78 70 62 55 48 41 35 30 30 33 38 42 46
100 101 101 101 101 101 100 100 100 100 100 100 100 100 100 101 102 102 102 102 101 100 100 100 100 98 93 87 82 75 66 58 51 45 39 34 30 31 35 42 47 52
Wind_Speed
36 37 38 39 39 39 39 39 39 39 38 38 38 39 40 41 41 42 42 42 42 42 43 43 44 45 46 47 47 47 47 47 47 47 47 46 46 46 46 46 47 47
35 36 38 39 40 40 40 41 40 40 39 39 39 40 41 42 42 43 43 43 42 42 43 43 44 45 46 47 47 47 47 47 47 47 47 47 46 46 46 47 47 47
35 36 37 38 39 40 41 41 40 39 39 40 41 42 43 43 43 44 43 43 43 43 43 43 45 46 46 47 47 47 47 48 48 48 47 47 46 46 46 47 47 47
38 37 37 38 39 40 41 40 40 39 40 41 42 43 43 44 44 45 44 44 44 43 44 44 45 46 46 47 47 48 48 48 48 48 48 47 47 46 46 47 47 47
41 39 39 40 40 40 41 41 40 40 40 42 43 44 44 45 46 46 46 45 45 45 45 45 46 46 47 47 47 48 48 48 48 48 48 48 47 47 47 47 47 47
44 43 43 42 42 42 43 42 41 41 41 42 44 44 45 46 47 47 47 47 46 46 46 46 47 47 47 47 47 47 48 48 48 48 48 48 48 47 47 48 48 48
47 47 46 45 45 45 45 44 43 42 42 43 44 45 45 46 47 48 48 48 47 47 47 47 48 48 48 48 48 48 48 48 48 48 48 48 48 48 48 48 48 48
50 49 49 48 49 49 48 46 44 43 44 45 45 45 46 46 47 48 48 48 48 48 48 49 49 49 49 49 49 49 48 48 48 48 48 48 48 48 48 48 48 48
53 52 52 52 52 52 51 49 47 46 46 47 47 46 47 47 47 48 48 49 49 50 50 50 51 51 51 51 50 50 49 49 48 48 48 48 48 48 48 48 48 47
54 55 55 55 55 54 53 50 49 49 49 49 48 48 48 47 47 47 48 49 50 51 52 52 52 52 52 52 51 50 50 49 49 49 49 49 49 49 48 48 48 47
53 55 56 57 56 55 54 52 51 51 52 51 50 49 49 49 48 48 49 50 52 53 54 54 54 54 54 53 52 51 50 50 49 49 49 49 49 49 48 48 48 47
50 54 56 56 57 56 54 53 53 53 53 53 52 51 51 50 49 48 49 51 53 54 55 55 55 55 55 54 52 51 51 50 50 50 50 50 49 49 48 48 47 47
48 51 53 55 57 57 55 54 54 54 55 54 53 53 52 51 49 49 51 53 54 56 57 57 56 56 55 54 53 52 51 51 51 51 50 50 49 49 48 47 47 46
46 48 51 54 57 57 57 56 55 56 56 55 54 54 53 51 50 50 52 54 55 57 58 58 57 57 55 54 53 52 51 51 51 51 51 50 49 48 47 47 46 46
46 45 49 54 57 58 57 57 56 56 56 55 55 54 53 52 51 52 53 55 56 58 59 59 58 57 55 54 53 52 52 52 52 51 51 50 49 48 47 46 46 45
47 46 47 53 57 57 57 57 57 57 56 56 55 55 54 53 53 54 55 56 57 58 59 59 58 56 55 54 53 52 52 52 52 51 50 49 48 47 46 46 45 44
50 48 46 50 55 56 57 57 57 57 56 56 56 56 55 54 54 55 56 56 58 59 59 58 57 56 55 54 53 53 53 53 52 51 50 49 48 47 46 45 44 43
51 50 46 48 53 55 56 57 57 57 57 56 57 56 55 55 55 56 56 57 58 59 58 57 57 56 55 54 53 52 52 52 52 51 50 49 47 46 45 44 44 43
50 49 46 47 51 54 56 57 57 56 57 57 56 55 55 55 56 56 57 58 58 58 57 57 56 55 54 53 52 52 51 51 51 50 50 48 47 46 45 45 44 43
49 47 45 46 51 54 55 56 56 56 57 56 55 55 55 56 56 57 57 57 57 57 57 56 56 54 53 52 51 51 50 50 50 50 49 48 47 46 45 44 44 43
48 46 44 45 50 53 54 55 56 56 55 54 54 54 55 56 56 56 56 56 56 56 56 56 54 53 52 51 50 50 49 49 49 49 48 47 46 45 45 44 43 42
46 45 43 45 50 53 54 55 55 54 53 53 54 55 55 55 55 55 55 55 56 56 55 54 53 52 51 50 49 49 49 48 48 47 47 46 46 45 44 43 42 41
45 45 45 47 50 52 52 52 52 52 53 54 54 54 54 54 54 54 55 55 55 54 53 53 51 50 49 49 48 48 48 48 47 47 46 46 45 44 43 42 41 40
45 45 46 47 49 49 50 51 52 52 53 53 53 53 53 53 53 54 54 53 53 52 52 51 50 49 48 48 47 47 47 47 47 46 46 45 44 43 42 40 40 39
44 44 45 47 48 49 51 51 52 52 52 52 52 52 52 53 53 53 52 52 51 51 50 50 49 48 47 47 46 46 46 46 46 46 45 44 43 42 40 39 38 38
44 45 47 48 49 50 50 50 50 51 51 51 51 52 52 52 52 51 51 50 50 49 49 49 48 47 46 46 46 45 45 45 45 45 45 44 42 41 40 38 37 37
Wind_Direction
272 273 274 275 276 278 279 281 282 284 287 289 290 292 292 293 294 295 296 297 298 299 301 302 303 304 304 304 303 302 301 300 299 298 297 297 296 296 295 295 295 295
276 276 275 276 277 279 280 282 284 286 288 290 292 292 293 294 295 295 295 296 297 298 300 301 302 303 303 302 301 300 299 298 297 297 296 296 295 295 295 294 294 294
277 277 278 278 279 280 282 283 285 288 290 291 292 293 294 295 295 294 294 295 296 297 299 300 301 301 301 301 300 299 298 297 297 296 296 295 295 294 294 293 293 293
276 278 279 279 279 281 283 285 287 290 291 292 292 293 294 295 295 294 294 295 296 297 299 300 300 301 300 300 299 299 298 297 297 296 296 295 294 293 293 292 292 292
275 276 277 277 278 280 282 285 288 289 290 291 291 293 294 295 295 295 295 295 296 297 298 299 300 300 300 299 299 298 297 297 297 296 296 295 294 293 292 291 291 291
274 275 275 275 276 277 280 283 285 286 288 289 290 292 294 294 295 295 295 295 296 297 298 299 300 300 300 299 298 297 297 296 296 296 295 295 294 293 292 291 291 291
274 274 274 274 274 275 278 280 282 283 285 286 288 291 292 293 294 295 295 296 296 297 298 300 300 300 300 299 297 296 296 296 295 295 294 294 293 292 291 290 290 291
274 273 273 273 273 275 277 279 279 281 282 284 287 289 290 292 293 294 295 296 296 297 299 300 301 301 300 299 297 296 296 296 295 294 293 292 291 290 289 289 289 289
273 273 273 273 274 275 277 278 278 279 281 283 286 288 289 291 292 294 295 296 297 298 299 301 302 301 300 299 297 296 296 296 295 294 292 291 290 289 288 288 288 288
272 273 273 273 274 275 277 277 277 278 279 281 284 287 288 290 291 294 296 296 297 298 300 301 302 301 300 298 297 296 296 295 294 293 291 290 289 288 288 288 288 288
273 273 273 273 274 275 276 276 276 276 278 280 283 286 287 289 291 294 295 296 298 298 300 301 301 301 300 298 296 296 295 294 293 291 290 289 288 288 288 288 288 287
272 273 274 274 274 274 274 273 274 275 277 279 282 284 285 288 291 293 294 296 298 299 299 300 300 300 299 297 296 295 294 293 292 290 289 288 287 287 287 287 287 287
271 272 274 274 273 272 272 271 272 273 276 279 281 283 285 287 290 291 294 296 298 299 299 299 299 298 297 296 295 294 293 292 291 289 288 287 287 287 287 287 287 287
271 272 273 272 271 270 269 269 271 273 276 278 280 282 284 287 289 291 293 295 297 299 299 298 297 297 296 295 294 294 293 291 290 289 288 287 287 287 287 288 287 287
272 271 271 270 268 268 268 268 270 273 275 278 280 282 284 286 289 291 293 295 297 298 298 297 296 296 295 294 294 294 292 291 289 288 287 287 287 287 288 288 287 287
273 271 269 267 266 266 266 268 270 272 275 277 280 282 284 287 289 290 292 295 296 297 297 296 295 295 294 294 294 293 291 290 288 287 286 286 287 287 288 288 287 287
275 272 267 265 264 264 265 267 270 272 275 277 279 282 284 286 288 291 293 294 295 296 295 295 294 294 294 294 293 292 290 289 288 287 286 286 287 287 288 288 287 286
277 273 268 262 261 263 265 267 269 271 274 276 279 282 284 286 289 291 293 294 294 295 294 294 293 293 293 293 292 291 289 288 287 287 287 287 288 289 289 288 287 286
276 273 268 260 258 261 263 266 268 271 273 276 279 282 284 287 290 291 292 293 293 293 293 293 292 292 292 291 290 289 288 287 287 287 288 288 289 290 289 288 288 287
276 273 266 257 255 259 262 265 267 270 273 276 279 283 286 288 290 291 291 292 292 292 291 291 291 291 291 290 289 288 288 287 287 287 288 289 290 290 289 288 288 287
276 272 264 254 254 258 261 263 266 270 274 278 282 285 287 288 289 290 290 291 291 290 290 290 290 290 290 290 289 288 287 287 287 287 288 289 289 289 288 288 287 287
274 269 260 253 253 257 260 263 268 273 278 282 284 286 286 287 288 289 289 290 289 290 290 290 290 290 290 289 288 287 287 286 286 287 287 287 288 288 287 286 286 286
270 264 257 252 254 258 263 268 274 278 281 283 284 285 286 287 288 288 288 288 289 289 289 289 290 290 289 288 287 286 286 285 286 286 286 286 286 286 285 285 284 284
266 262 258 257 261 266 271 276 279 281 283 283 284 285 286 287 287 287 287 288 288 289 289 289 289 289 288 287 286 285 285 285 285 285 285 286 285 284 283 283 283 283
265 264 265 267 271 275 278 280 281 282 283 283 284 285 286 286 286 287 287 288 288 289 289 289 289 288 287 286 285 284 284 284 285 285 285 285 284 283 282 281 281 281
271 272 274 276 278 280 281 281 282 283 283 284 285 285 285 286 286 287 288 288 288 288 288 288 288 287 286 285 284 284 284 284 284 284 284 284 283 282 281 280 280 281